Location: Byszew
(52.1813°N, 19.2693°E)
Time: 23:06:28
(UTC+00:00)

Envisat - Pass Details

Date: 04 February 2022
Orbit: 764 x 765 km, 98.2° (Epoch: 22 May)

Event Time Altitude Azimuth Distance (km) Brightness Sun altitude
Rises 02:01:41 0° 29° (NNE) 3,244 6.9 -38.9°
Reaches altitude 10° 02:05:30 10° 59° (ENE) 2,311 6.2 -38.4°
Maximum altitude 02:07:38 13° 84° (E) 2,133 5.9 -38.1°
Drops below altitude 10° 02:09:47 10° 109° (ESE) 2,304 5.9 -37.8°
Sets 02:13:33 0° 138° (SE) 3,224 6.4 -37.3°
